{"data":{"norad_id":61010,"intl_designator":"2024-158W","name":"STARLINK-32347","alt_names":[],"object_type":"PAYLOAD","status":"ACTIVE","operator":null,"country":"US","launch_date":"2024-09-05","launch_site_code":"AFETR","launch_vehicle":null,"mission":null,"orbit_class":"UNKNOWN","rcs_meters":null,"size_class":null,"mass_kg":null,"dimensions":null,"purposes":["comms"],"wikipedia_slug":null,"has_3d_model":false,"image_url":null,"decayed_at":null,"tle_current":{"epoch":"2026-05-25T04:23:13.679808Z","epoch_age_seconds":62456,"freshness":"FRESH","line1":"1 61010U 24158W   26145.18279722  .00000300  00000+0  22269-4 0  9991","line2":"2 61010  53.1612  70.1566 0001260  91.9500 268.1645 15.30192893 97296","mean_motion":15.30192893,"eccentricity":0.000126,"inclination_deg":53.1612,"raan_deg":70.1566,"arg_perigee_deg":91.95,"mean_anomaly_deg":268.1645,"bstar":2.2269e-5,"rev_number":9729,"period_min":94.105782779897,"perigee_km":474.37276468791,"apogee_km":476.09981475692,"semimajor_km":6853.3732897224,"source":"CELESTRAK","updated_at":"2026-05-25T13:38:19.352084Z"}}}